Location: Newark
(47.5833°N, 8.1500°E)
Time: 23:37:37
(UTC+00:00)

Tiros 1 despin weight - Pass Details

Date: 02 November 2020
Orbit: 593 x 642 km, 48.2° (Epoch: 29 November)

Event Time Altitude Azimuth Distance (km) Brightness Sun altitude
Rises 01:30:23 0° 278° (W) 2,860 - -46.4°
Reaches altitude 10° 01:32:42 10° 279° (W) 1,949 - -46.1°
Maximum altitude 01:37:11 88° 9° (N) 604 - -45.5°
Drops below altitude 10° 01:41:36 10° 99° (E) 1,927 - -44.9°
Sets 01:43:52 0° 100° (E) 2,825 - -44.5°
